This demonstration page uses our WeatherBlox Daily Observations layout. Learn more.

41.55636, -103.73856

Hourly Observations for December 26, 2019

Temp ( °F °C ) Dew Point ( °F °C ) Humidity (%) Winds ( mph kmh ) Pressure ( in mb ) Visibility ( mi km ) Precip ( " mm )
12:58 am 00:58 Cloudy 38 3.2 29 -1.5 72 72 NNW 13 20 29.83 1010 10 16.0934 0 0
1:58 am 01:58 Mostly Cloudy with Light Rain 33 0.8 32 0.2 96 96 NW 12 19 29.87 1012 7 11.26538 0.01 0.254
2:58 am 02:58 Cloudy 33 0.8 33 0.3 97 97 ENE 5 7 29.88 1012 10 16.0934 0 0
3:58 am 03:58 Mostly Cloudy 33 0.3 32 0 98 98 W 6 9 29.91 1013 10 16.0934 0 0
4:58 am 04:58 Cloudy with Mist and Fog 33 0.5 32 0.2 98 98 NW 3 6 29.91 1013 6 9.65604 0 0
5:58 am 05:58 Cloudy with Mist and Fog 33 0.6 33 0.4 99 99 WNW 8 13 29.91 1013 5 8.0467 0 0
6:58 am 06:58 Mostly Cloudy with Mist and Fog 33 0.4 32 0.2 99 99 NNW 7 11 29.89 1012 4 6.43736 0 0
7:58 am 07:58 Cloudy with Mist and Fog 33 0.4 32 0.2 99 99 Calm 29.91 1013 2.75 4.425685 0 0
8:58 am 08:58 Cloudy 33 0.3 32 0 98 98 W 7 11 29.93 1014 10 16.0934 0 0
9:58 am 09:58 Cloudy 32 0.2 30 -1 92 92 WNW 6 9 29.96 1015 10 16.0934 0 0
10:58 am 10:58 Mostly Cloudy 31 -0.4 30 -1 96 96 Calm 29.98 1015 10 16.0934 0 0
11:58 am 11:58 Cloudy 30 -1.1 29 -1.5 97 97 W 6 9 30.01 1016 10 16.0934 0 0
12:58 pm 12:58 Mostly Cloudy with Scattered Snow Showers 30 -1.2 29 -1.6 97 97 Calm 30.03 1017 9 14.48406 0 0
1:58 pm 13:58 Cloudy 30 -1 30 -1 100 100 WNW 7 11 30.06 1018 7 11.26538 0 0
2:58 pm 14:58 Cloudy with Mist and Fog 30 -1 30 -1 100 100 WNW 6 9 30.08 1019 6 9.65604 0 0
3:58 pm 15:58 Cloudy with Light Snow 30 -1 29 -1.4 97 97 NW 10 17 30.12 1020 7 11.26538 0 0
4:58 pm 16:58 Mostly Cloudy with Light Rain/Snow 31 -0.7 28 -2.1 90 90 NW 10 17 30.14 1021 10 16.0934 0 0
5:58 pm 17:58 Mostly Cloudy 32 -0.2 28 -2.1 87 87 NW 7 11 30.14 1021 10 16.0934 0 0
6:58 pm 18:58 Mostly Cloudy with Scattered Snow Showers 32 -0.1 29 -1.6 90 90 NNW 8 13 30.13 1020 10 16.0934 0 0
7:58 pm 19:58 Mostly Cloudy 33 0.3 28 -2.3 83 83 NNW 8 13 30.11 1020 10 16.0934 0 0
8:58 pm 20:58 Partly Cloudy 34 1.2 28 -2.4 77 77 NNW 6 9 30.1 1019 10 16.0934 0 0
9:58 pm 21:58 Mostly Cloudy 34 1.1 27 -2.9 75 75 W 5 7 30.12 1020 10 16.0934 0 0
10:58 pm 22:58 Sunny 32 -0.2 26 -3.4 79 79 WNW 3 6 30.15 1021 10 16.0934 0 0
11:58 pm 23:58 Mostly Cloudy 28 -2.3 25 -4.1 88 88 Calm 30.2 1023 10 16.0934 0 0

Powered by AerisWeather